DELTA 1 DEB, 40765

Orbit data source: Space-Track

DELTA 1 DEB, 40765 is space debris in SSO originally from a launch on Thu, 29 Jul 1976 UTC launched from the Air Force Western Test Range (AFWTR). Debris objects in space refer to the collection of defunct objects orbiting the Earth. Examples of debris include non-operational satellites, rocket bodies, and fragments generated from explosions, collisions, or faulty payload assembly.

Loading next visibility...
Identifier
40765, 1976-077GJ
Orbit
SSO
Country
Flag of USUS
Related business
Manufacturer
Unknown
Mission
Spacecraft
Bus & Motor
Unknown
Mass
Unknown
Launch date (UTC)
1976-07-29 (49 years ago)
Launch vehicle
Unknown
Launch site
Air Force Western Test Range (AFWTR)
Object type
Payload
Rocket body
Debris
Shape & HBR
Unknown shape, 0.1 m
Radar Cross Section
Small (<0.1 m²)

Expand to show TLE details & history
Last TLE update: 5 days ago

TLE from 5 days ago
0 DELTA 1 DEB
1 40765U 76077GJ  25347.28062611  .00000086  00000-0  92034-3 0  9991
2 40765 102.1569 342.0833 0028111  45.9556 314.3819 12.45424476548148
Epoch: 2025-12-13T06:44Z
TLE epoch observation values (Epoch: 2025-12-13T06:44:06.095Z)
Latitude
-0.00006°
Longitude
158.84776°
Altitude
1,470.814 km
Speed
7.135 km/s
True Right ascension
22h 48m 19s
True Declination
0° 00' 00"
Sunlit
Object was in daylight at epoch
Visualization orbit readout
Latitude
Unknown
Longitude
Unknown
Altitude
Unknown
Speed
Unknown
Apparent Right ascension
Unknown
Apparent Declination
Unknown
Sunlit
N/A
Visualization observer readout
Local Sidereal Time
01:56:10
Azimuth
Unknown
Elevation
Unknown
Doppler factor
Unknown
Orbital elements
Apogee altitude
1,503.362 km
Perigee altitude
1,459.175 km
Semi-major axis
7,859.406 km
Eccentricity
0.00281
Inclination
102.1569°
RAAN
342.0833°
Arg. of periapsis
45.9556°
True anomaly
314.15111°
Mean anomaly
314.3819°
Eccentric anomaly
314.26656°
Mean motion
3.115 °/min
Orbital period
115.57 mins
BSTAR
0.00092034
Loading maneuver chart data...
Computing Atmospheric mass density...
Loading historical data...
Loading historical data...
Loading historical data...
Loading historical data...
Loading historical data...
Loading historical data...
Loading historical data...

Documentation

Showing up to 5 results
|